Theta_e
285 282 278 279 281 282 285 283 281 281 284 281 279 279 280 281 282 281 282 282 283 283 286 288 288 289 289 289 288 288 289 289 290 289 289 289 289 290 291 292 292 292 293 293
283 277 279 281 283 283 284 282 281 282 282 282 280 278 280 281 281 281 281 282 282 284 285 286 287 288 288 288 288 288 288 288 289 289 290 290 290 290 291 291 292 292 292 292
278 277 280 280 280 280 279 279 279 280 282 283 282 279 279 281 281 282 282 283 283 283 283 284 286 287 288 288 288 287 288 288 289 289 290 290 290 290 289 289 290 291 292 292
278 279 278 279 277 279 276 279 283 282 281 279 282 278 280 281 280 281 282 283 283 284 285 285 285 285 287 287 289 289 288 289 289 290 289 288 287 286 288 289 290 290 291 291
275 277 277 277 276 279 277 281 282 282 280 279 276 277 280 281 279 281 282 283 283 284 284 284 285 285 286 288 288 289 289 289 289 289 289 288 287 288 289 289 289 289 290 291
277 279 278 277 278 280 282 281 281 281 280 276 273 275 278 280 282 283 283 283 284 284 285 285 286 286 287 288 288 288 288 288 289 289 289 288 288 287 287 287 287 288 289 289
277 276 278 278 277 280 280 280 276 275 276 276 274 273 280 282 283 284 284 284 284 285 285 285 285 285 286 287 288 288 288 288 289 289 288 288 288 288 287 287 287 287 287 287
276 274 276 278 276 275 275 275 276 272 274 274 271 272 279 281 284 284 285 285 284 284 285 284 285 285 286 286 288 288 288 288 289 289 289 289 289 288 288 288 288 287 287 287
275 273 277 277 278 277 274 275 274 267 257 270 274 275 277 280 281 281 281 282 283 284 284 284 285 285 285 286 287 287 287 288 288 288 289 289 289 289 288 289 289 288 288 287
275 274 275 276 278 278 276 276 273 274 271 271 274 271 278 277 279 281 280 281 283 284 283 284 285 285 286 286 286 287 287 287 288 288 289 288 288 289 289 289 288 288 288 287
275 276 273 275 274 273 275 273 270 273 270 272 271 277 281 280 282 282 282 283 284 284 284 284 285 286 286 286 286 287 287 287 288 288 288 288 288 288 288 288 288 288 287 287
275 276 274 272 274 275 274 272 273 275 269 268 269 274 279 280 282 283 284 284 285 285 285 284 285 285 285 286 286 287 287 287 288 288 287 287 288 288 287 287 287 287 286 286
276 274 274 273 272 274 272 273 271 269 271 269 271 276 277 278 279 280 282 284 283 283 283 284 285 285 285 286 286 287 287 287 288 287 287 287 287 287 287 287 287 286 285 285
278 272 276 276 274 274 271 271 271 272 271 271 271 276 277 277 278 280 281 282 283 282 283 283 284 285 286 286 286 286 286 288 287 286 286 286 286 286 286 286 286 285 284 283
276 273 269 268 269 269 271 272 271 268 273 273 275 272 278 280 279 280 281 281 281 281 282 283 283 285 285 285 286 286 286 287 287 285 285 285 286 286 286 285 284 283 282 281
273 270 267 267 267 268 268 271 273 272 273 272 274 273 280 281 282 280 280 280 280 281 282 283 283 284 284 285 285 285 285 286 286 285 285 285 285 284 283 282 281 280 280 280
272 267 269 271 264 264 268 270 271 273 274 274 270 276 279 278 278 280 281 281 280 281 283 283 283 284 284 285 286 285 285 286 285 284 284 284 283 282 281 280 279 278 278 278
267 268 268 270 264 266 275 273 274 273 275 275 275 277 278 279 280 280 281 280 280 282 282 283 284 284 285 286 286 285 285 284 284 283 282 282 280 279 278 277 276 276 276 276
273 271 263 268 266 270 275 272 271 271 275 277 276 278 279 280 278 279 282 282 282 282 283 284 285 285 285 285 285 284 283 284 282 280 278 277 276 275 274 273 273 274 274 274
271 271 272 262 266 268 275 272 275 275 271 279 278 278 279 277 274 280 284 283 282 282 281 281 284 284 283 282 283 281 281 280 278 277 275 273 273 272 271 272 272 273 273 273
268 269 268 265 267 269 275 274 275 271 276 277 278 279 279 275 280 284 283 283 283 283 281 283 282 280 280 280 280 278 277 276 276 272 271 271 271 270 270 271 271 271 271 271
268 267 266 266 264 266 274 273 272 280 279 279 279 281 279 280 282 282 282 281 282 282 281 281 279 278 280 279 278 276 275 273 271 270 269 269 269 269 270 269 270 270 270 269
271 274 271 271 271 275 276 278 279 279 281 279 279 281 280 280 280 281 281 282 282 282 282 281 278 278 278 276 277 276 274 270 268 268 267 267 268 268 269 268 268 268 269 268
269 274 273 272 277 275 276 279 279 280 279 281 281 281 281 279 280 280 280 280 281 282 281 281 279 277 276 274 273 272 269 268 267 266 266 267 267 268 268 268 268 268 267 267
273 273 273 272 275 276 278 278 280 281 280 280 281 280 280 280 279 280 280 280 281 281 281 281 279 279 278 274 271 268 267 267 266 266 266 267 268 267 266 267 267 267 268 268
274 274 272 275 280 280 280 282 282 279 280 280 280 280 280 280 280 281 280 281 281 281 281 278 278 276 275 271 269 266 264 264 264 265 266 266 265 265 265 265 265 268 269 269
Wind_Speed
12 14 13 11 9 7 12 14 14 7 2 11 13 12 8 5 6 6 6 7 9 10 8 9 9 10 11 13 14 15 16 16 12 11 11 10 11 10 10 11 15 15 15 16
8 14 9 3 8 13 13 15 11 9 7 7 10 9 6 5 4 3 3 4 5 7 9 10 10 10 9 10 11 12 13 13 12 9 10 8 8 7 9 9 12 14 15 15
14 5 6 2 9 9 11 7 4 7 8 9 7 7 9 6 5 3 2 1 2 5 7 9 10 10 9 8 8 9 10 11 12 12 8 8 8 7 10 11 10 12 14 13
10 5 6 7 6 6 5 3 7 10 3 3 3 3 8 10 9 7 6 6 1 3 6 8 10 11 10 9 6 7 8 9 9 11 10 12 10 10 9 10 10 10 13 13
5 6 8 10 5 6 5 3 4 3 4 3 2 2 6 6 12 12 10 7 4 0 4 7 8 8 8 7 6 6 7 8 8 9 9 8 9 7 7 9 12 13 12 12
6 2 5 4 3 4 7 4 4 2 1 2 2 3 5 7 9 11 12 10 7 5 3 8 8 8 8 6 4 4 5 6 7 8 8 9 9 9 9 10 9 10 9 9
2 4 1 3 2 4 2 2 1 2 2 1 2 3 4 6 6 8 14 12 9 6 5 8 10 9 8 8 6 4 5 7 7 9 9 9 8 9 9 10 8 11 9 9
2 3 6 6 4 2 3 1 2 3 2 2 1 5 2 1 4 5 8 8 8 7 6 7 8 8 8 8 7 6 6 8 7 8 10 8 8 5 6 8 8 8 9 9
4 3 1 2 5 3 3 1 2 7 1 3 0 3 5 4 8 7 9 9 11 9 7 8 8 6 6 6 7 7 7 8 8 7 7 9 8 8 8 10 9 8 11 9
4 5 1 1 2 8 3 7 2 1 2 4 2 5 3 10 14 12 13 14 13 10 10 7 7 7 6 6 7 7 8 9 9 8 7 7 9 9 9 9 11 12 12 13
4 2 3 2 1 1 2 2 5 3 3 2 4 3 3 8 9 14 14 14 12 11 11 8 8 8 8 8 7 7 8 9 9 8 7 8 9 9 9 9 11 11 12 13
2 3 3 2 2 1 1 1 2 2 4 2 2 8 4 4 4 7 10 9 10 10 10 10 10 10 9 8 7 8 9 9 9 8 8 9 9 9 9 10 12 11 12 13
7 2 2 3 3 1 5 5 4 4 1 7 4 4 2 4 6 9 10 8 8 8 11 11 10 10 10 10 9 9 9 10 9 8 8 9 9 9 9 11 11 11 13 14
2 2 3 3 3 4 5 6 7 3 5 6 11 11 9 9 11 11 11 11 11 12 12 11 10 10 10 10 11 11 11 9 8 8 8 9 9 9 9 10 11 12 13 14
2 5 2 2 2 2 4 7 14 13 8 10 4 11 18 8 9 12 11 12 13 13 12 11 11 10 10 10 10 11 12 10 7 8 8 9 8 8 9 10 11 12 13 13
3 3 2 2 1 2 9 14 17 19 19 19 17 24 22 23 16 14 12 10 11 12 12 12 11 12 11 11 11 10 11 11 7 9 9 8 7 8 9 10 12 12 13 13
7 8 5 4 3 3 8 12 21 13 10 19 14 16 7 7 6 9 7 8 11 11 11 12 13 11 11 12 10 10 11 9 9 9 8 7 7 8 9 11 12 12 13 14
8 6 1 1 2 6 1 1 4 18 10 21 13 17 12 11 8 10 10 12 13 9 12 13 11 11 11 11 10 10 9 9 9 7 6 5 6 8 10 10 11 12 12 13
0 5 4 4 5 8 7 9 9 12 9 22 24 21 16 11 6 15 15 13 14 12 11 10 10 10 11 10 10 9 10 7 5 4 4 4 6 9 9 10 11 12 12 13
3 4 1 4 5 7 1 3 5 6 9 10 20 16 15 6 6 10 6 6 9 10 9 9 10 9 9 9 6 8 8 5 5 3 3 4 6 7 9 10 11 10 12 13
5 3 9 5 6 11 9 9 8 4 3 8 16 14 11 9 11 7 4 7 6 7 9 9 7 9 10 6 5 7 5 6 2 1 3 4 6 7 9 10 10 11 13 13
13 12 7 5 5 14 16 10 10 4 1 7 11 12 10 13 12 10 10 10 12 10 10 10 7 9 8 4 5 7 6 2 2 2 3 5 6 6 7 10 10 11 12 13
8 9 10 14 12 2 24 5 15 1 4 6 8 9 10 11 10 12 13 14 14 13 10 7 7 9 6 5 6 7 3 3 2 3 4 6 6 7 7 9 10 10 10 10
6 5 4 4 12 18 16 21 9 11 13 9 10 9 9 14 14 13 12 11 11 11 10 8 8 8 9 5 6 3 3 2 2 4 5 5 6 6 7 7 7 9 9 10
3 15 7 7 12 2 13 19 19 15 16 15 16 14 16 14 13 13 11 11 12 11 10 8 9 9 8 5 6 5 4 3 4 4 5 5 5 7 8 7 8 9 9 11
9 10 10 11 10 9 5 9 18 15 15 15 13 13 13 13 14 14 12 12 11 11 9 8 8 7 5 5 4 4 3 3 3 4 4 4 6 6 7 8 9 14 18 19
Wind_Direction
33 61 46 20 28 80 99 97 98 101 108 68 104 117 118 109 97 88 70 59 56 48 35 33 34 29 27 33 30 30 27 26 25 25 20 21 17 19 21 19 17 14 12 11
83 54 9 11 65 81 95 103 97 85 88 104 138 127 145 158 126 118 97 73 47 39 31 23 21 18 18 27 24 27 30 27 26 22 21 14 14 12 13 11 13 13 11 9
76 15 339 66 57 71 52 82 130 123 112 85 153 164 183 177 168 172 182 259 32 9 12 8 10 14 8 14 17 20 25 26 27 20 18 17 15 12 9 8 7 6 5 5
63 13 50 76 65 352 75 11 116 124 181 133 280 153 210 190 197 211 205 203 141 11 9 3 358 357 352 352 355 11 16 22 22 19 18 19 15 7 2 359 356 358 3 1
62 22 34 61 13 333 99 136 112 69 83 193 80 249 115 197 221 214 213 212 195 65 17 2 352 344 338 343 338 348 357 8 11 13 16 11 10 3 352 356 353 356 354 355
81 32 21 23 355 45 127 125 98 95 115 235 144 295 170 187 224 211 207 212 212 229 328 358 345 338 337 342 318 329 335 342 354 355 357 359 356 352 350 354 351 351 345 345
118 34 24 3 119 91 193 184 210 196 214 35 113 256 298 198 210 225 202 205 209 231 282 328 334 331 329 332 326 304 320 318 334 341 344 343 338 337 340 343 342 339 339 338
147 146 4 351 18 37 56 224 325 303 282 10 84 235 123 185 221 234 217 204 213 231 258 288 309 312 313 317 310 288 303 304 316 327 330 330 325 321 320 326 327 326 330 328
140 130 107 51 32 302 131 107 87 107 118 259 17 250 215 221 219 207 203 210 224 232 239 284 293 292 292 292 290 264 272 281 281 294 314 318 317 311 310 314 317 320 318 320
166 119 171 108 207 53 358 127 149 88 305 282 216 263 247 207 219 206 216 223 231 232 232 283 281 287 288 286 283 253 250 267 276 281 296 303 304 299 300 301 306 313 314 318
147 294 138 227 194 147 169 157 69 96 334 283 304 254 182 198 198 203 218 227 233 234 241 277 289 281 278 280 278 267 255 266 267 266 283 295 301 300 302 300 308 310 311 314
123 108 130 85 111 331 293 266 279 213 177 58 341 272 184 193 185 213 232 241 244 245 259 273 275 273 275 273 277 274 268 264 266 267 277 286 292 295 297 305 311 312 309 312
184 163 130 181 171 166 225 183 134 101 60 200 200 254 181 216 226 235 243 239 240 249 273 275 273 268 267 270 271 273 278 278 276 267 270 281 291 297 300 307 311 311 310 310
123 125 212 250 78 95 188 197 190 172 184 172 229 273 229 214 233 228 231 242 253 268 279 274 272 269 271 271 270 270 270 274 281 271 271 283 294 300 306 311 311 311 312 310
193 212 186 244 236 273 246 215 193 206 197 212 286 234 262 275 247 255 261 269 267 267 267 262 266 273 276 277 278 277 270 272 282 276 277 286 296 301 307 309 310 308 307 307
170 175 167 268 11 268 274 232 231 227 239 252 260 270 272 275 270 256 253 252 254 255 257 262 271 272 271 274 280 288 281 279 288 281 284 294 296 304 307 310 310 306 307 308
162 144 162 241 6 306 269 235 200 205 220 219 218 229 234 239 239 249 247 248 254 257 262 274 275 273 277 274 287 283 282 290 286 281 286 291 301 303 309 309 306 305 307 309
142 124 66 205 250 232 242 148 227 214 235 215 245 251 237 256 275 273 255 260 269 255 261 267 268 267 274 278 287 285 282 279 280 278 284 292 302 305 306 304 303 305 306 305
299 138 121 209 217 319 261 188 181 187 262 209 226 249 257 266 286 276 254 245 246 242 251 256 261 257 272 269 282 277 271 268 258 260 273 304 308 301 300 301 301 304 304 304
83 46 223 148 235 243 276 169 156 159 266 207 205 231 244 157 240 272 263 230 231 231 234 248 256 259 261 262 251 263 259 246 249 241 279 298 288 291 296 298 299 302 300 297
152 176 218 195 259 278 229 152 160 178 262 162 188 214 207 201 232 288 211 240 238 242 259 268 247 250 258 257 248 251 248 244 205 218 277 283 284 292 292 294 297 301 302 301
166 158 192 145 214 267 151 125 206 201 157 173 189 211 214 228 250 250 259 259 268 262 264 258 249 265 270 247 242 245 236 170 196 264 279 285 289 288 290 294 298 301 302 303
206 189 181 193 208 98 184 205 208 250 188 191 201 218 228 251 252 261 270 275 274 272 263 255 230 260 249 234 224 240 195 179 245 281 287 287 289 287 289 300 306 308 309 307
227 178 236 141 228 224 202 233 235 221 238 253 251 260 262 264 268 265 264 264 263 265 264 254 248 248 260 197 207 204 157 181 235 273 286 287 283 297 296 301 302 302 306 309
168 147 199 257 267 273 229 229 240 239 238 249 253 251 254 258 257 257 265 265 263 263 262 255 254 264 263 191 193 169 167 197 255 271 277 287 294 302 305 301 301 295 298 300
188 179 187 222 204 208 207 211 225 226 234 233 237 246 240 240 248 257 254 254 260 262 262 250 247 243 229 182 173 168 162 190 241 272 283 299 298 306 305 307 303 295 298 305